Location: Chapel Hill
(35.9134°N, 79.0560°W)
Time: 05:41:53
(UTC-04:00)

ACS3 Solar Sail - Pass Details

Date: 18 June 2024
Orbit: 993 x 1022 km, 97.4° (Epoch: 23 July)

Event Time Altitude Azimuth Distance (km) Brightness Sun altitude
Exits shadow 21:57:49 18° 116° (ESE) 2,234 6.1 -14.2°
Maximum altitude 22:01:21 31° 69° (ENE) 1,688 5.8 -14.7°
Drops below altitude 10° 22:06:39 10° 10° (N) 2,768 7.6 -15.5°
Sets 22:09:25 0° 1° (N) 3,718 8.6 -15.8°
